Location: Champignolles
(47.0543°N, 4.5663°E)
Time: 23:23:05
(UTC+00:00)

Envisat - Pass Details

Date: 14 March 2021
Orbit: 764 x 766 km, 98.1° (Epoch: 12 April)

Event Time Altitude Azimuth Distance (km) Brightness Sun altitude
Rises 04:49:01 0° 20° (NNE) 3,243 6.7 -12.3°
Reaches altitude 10° 04:51:29 10° 28° (NNE) 2,312 6.0 -11.9°
Maximum altitude 04:56:15 40° 97° (E) 1,124 4.5 -11.1°
Drops below altitude 10° 05:01:00 10° 167° (SSE) 2,294 5.6 -10.3°
Sets 05:03:25 0° 174° (S) 3,216 6.2 -9.9°
